This is the latest recevied weather packets stored in our database for station/object DB0SMU-12. If no packets are shown the sender has not sent any weather packets the latest 1 day(s).
| Time | Temp. | Humidity | Pressure | Rain* | Wind** | Luminosity | Snow |
|---|---|---|---|---|---|---|---|
| 1777952892 | 9.44° C | 80% | 1011 hPa | 0 mm | 1.34 m/s, 215° | - | - |
| 1777952711 | 9.44° C | 80% | 1010.9 hPa | 0 mm | 2.24 m/s, 225° | - | - |
| 1777952530 | 9.44° C | 80% | 1010.9 hPa | 0 mm | 2.24 m/s, 225° | - | - |
| 1777952349 | 9.44° C | 80% | 1010.9 hPa | 0 mm | 1.79 m/s, 223° | - | - |
| 1777952168 | 9.44° C | 81% | 1010.9 hPa | 0 mm | 1.34 m/s, 225° | - | - |
| 1777951987 | 9.44° C | 80% | 1010.9 hPa | 0 mm | 1.34 m/s, 225° | - | - |
| 1777951806 | 9.44° C | 79% | 1010.9 hPa | 0 mm | 0.89 m/s, 227° | - | - |
| 1777951626 | 9.44° C | 80% | 1010.9 hPa | 0 mm | 1.34 m/s, 222° | - | - |
| 1777951445 | 9.44° C | 80% | 1011 hPa | 0 mm | 0.89 m/s, 207° | - | - |
| 1777951264 | 9.44° C | 80% | 1011.1 hPa | 0 mm | 1.34 m/s, 223° | - | - |
| 1777951083 | 9.44° C | 80% | 1011.1 hPa | 0 mm | 2.24 m/s, 220° | - | - |
| 1777950902 | 9.44° C | 80% | 1011.1 hPa | 0 mm | 2.24 m/s, 208° | - | - |
| 1777950721 | 10° C | 80% | 1011.1 hPa | 0 mm | 1.34 m/s, 220° | - | - |
| 1777950540 | 10° C | 81% | 1011.1 hPa | 0 mm | 2.68 m/s, 210° | - | - |
| 1777950359 | 10° C | 80% | 1011.1 hPa | 0 mm | 1.79 m/s, 220° | - | - |
| 1777950178 | 9.44° C | 80% | 1011.2 hPa | 0 mm | 1.34 m/s, 223° | - | - |
| 1777949997 | 9.44° C | 80% | 1011.1 hPa | 0 mm | 1.34 m/s, 223° | - | - |
| 1777949816 | 10° C | 80% | 1011.2 hPa | 0 mm | 1.79 m/s, 225° | - | - |
| 1777949635 | 9.44° C | 80% | 1011.3 hPa | 0 mm | 1.79 m/s, 225° | - | - |
| 1777949454 | 10° C | 80% | 1011.4 hPa | 0 mm | 1.79 m/s, 225° | - | - |
| 1777949273 | 10° C | 81% | 1011.4 hPa | 0 mm | 1.79 m/s, 225° | - | - |
| 1777949093 | 10° C | 82% | 1011.4 hPa | 0 mm | 1.79 m/s, 225° | - | - |
| 1777948912 | 9.44° C | 82% | 1011.4 hPa | 0 mm | 1.79 m/s, 227° | - | - |
| 1777948731 | 10° C | 81% | 1011.4 hPa | 0 mm | 1.79 m/s, 226° | - | - |
| 1777948550 | 10° C | 82% | 1011.5 hPa | 0 mm | 1.79 m/s, 224° | - | - |
* Rain latest hour (hover to see other rain measurements)
** Current wind speed in m/s (hover to see current wind gust speed)